Wind_Speed
4 4 4 4 4 5 6 6 6 7 7 9 8 8 16 20 24 23 28 33 38 37 37 38 39 40 36 31 30 31 30 24 24 21 17 15 13 11 8 10 19 23 23 22
3 2 3 3 6 5 4 3 6 6 6 7 6 7 6 11 18 25 28 31 34 35 36 37 41 37 31 29 28 27 24 23 19 18 17 14 8 7 15 24 20 19 22 22
5 1 3 5 8 8 6 6 6 6 9 2 2 4 6 6 6 7 14 21 26 31 34 34 33 31 29 27 27 23 19 18 19 15 10 7 10 17 19 17 19 19 20 21
2 2 1 7 3 4 6 3 5 2 2 5 7 11 12 10 4 4 7 13 19 23 24 24 25 27 26 25 20 20 21 19 14 7 5 13 18 18 17 18 19 20 21 23
4 4 5 5 4 7 7 5 2 6 6 10 11 8 12 11 7 6 6 9 13 17 20 25 26 25 24 22 22 21 17 12 5 6 19 22 16 18 19 20 20 21 23 26
3 5 7 7 3 3 5 4 5 7 8 8 2 3 3 3 6 9 11 14 17 20 21 21 21 22 23 22 18 14 10 5 10 20 21 17 19 20 19 19 21 23 25 26
3 3 7 7 6 7 5 7 12 16 16 10 4 4 12 10 10 11 13 16 17 18 19 20 23 21 19 15 12 7 8 17 21 13 17 18 19 19 20 21 24 26 29 29
3 3 6 8 5 9 7 10 15 14 14 10 12 17 17 15 15 15 16 18 19 23 23 21 17 13 9 3 7 15 19 12 14 16 17 18 19 20 22 24 27 29 32 34
9 6 4 8 5 9 21 24 17 19 17 17 21 20 18 18 18 19 21 22 21 19 19 16 11 6 5 7 6 8 10 11 13 16 17 19 22 25 27 28 31 33 33 35
4 4 3 6 10 22 20 23 22 19 19 18 22 22 21 21 22 23 21 19 17 15 12 8 4 1 1 3 4 8 11 14 16 20 23 25 28 31 34 36 38 39 38 39
1 1 6 8 14 24 22 22 22 22 21 22 22 24 24 25 25 22 19 16 12 10 7 5 4 3 2 6 10 13 16 19 22 25 27 31 33 34 36 40 39 38 41 43
6 19 9 15 22 22 23 22 20 20 24 24 23 26 27 27 23 19 17 15 12 8 6 6 3 3 7 10 14 17 21 24 27 30 32 34 37 42 40 40 41 39 39 37
8 28 12 27 25 22 21 19 18 19 22 27 24 28 28 27 22 21 17 14 10 9 5 2 5 8 10 14 17 19 22 25 28 31 34 36 37 37 41 43 35 38 37 36
20 31 18 28 18 23 21 21 20 22 25 27 32 30 28 26 22 17 15 12 9 5 3 5 8 10 14 17 20 23 26 28 29 30 32 33 33 33 32 37 40 43 39 32
26 12 26 27 29 26 25 28 30 31 31 29 27 27 22 21 18 15 12 7 4 3 4 7 10 13 17 20 23 25 26 27 28 29 29 28 28 29 31 34 35 35 33 29
16 16 28 33 32 30 30 30 32 32 29 28 26 23 20 17 14 11 7 5 3 4 7 10 14 17 20 21 22 23 24 25 25 26 26 23 22 24 26 28 28 29 29 24
32 21 32 30 31 32 31 30 29 30 28 26 24 21 17 14 11 8 4 2 4 7 10 13 15 17 19 20 21 23 23 22 22 22 21 21 23 27 28 31 30 27 22 19
14 22 27 33 35 34 30 27 28 27 25 22 20 17 14 10 7 4 2 3 7 10 11 13 15 16 18 19 19 20 20 21 21 22 22 22 23 22 23 24 24 24 23 22
14 24 25 28 31 32 31 29 26 23 22 19 17 14 10 6 3 2 3 6 8 10 12 13 15 16 16 17 18 19 19 20 21 21 21 21 21 21 22 22 23 22 22 23
25 23 26 31 29 28 31 27 24 22 19 16 12 9 6 3 2 4 6 7 9 11 13 14 15 16 17 17 18 20 21 22 23 22 21 21 21 22 22 22 24 24 24 23
24 28 30 30 30 28 24 22 21 19 17 12 8 5 3 3 3 5 7 9 10 12 13 14 16 16 17 18 20 21 22 21 22 22 22 22 22 22 22 23 23 23 23 24
29 29 30 29 27 25 23 20 15 13 12 9 6 4 3 3 4 6 8 10 11 13 14 14 16 18 19 20 20 20 20 21 21 21 21 22 22 23 23 23 24 24 23 23
31 28 25 25 26 24 18 15 13 9 8 6 4 2 2 4 7 8 10 11 13 14 14 16 16 17 19 20 20 20 20 21 21 21 21 21 22 22 23 23 23 23 23 24
24 24 25 23 18 15 18 15 11 8 5 3 2 3 5 7 9 10 11 11 11 13 15 17 18 18 19 20 21 21 21 21 21 21 20 20 21 21 21 23 23 23 23 23
24 22 20 17 15 14 12 10 8 5 3 3 5 7 9 10 11 10 11 12 13 15 18 19 19 19 20 21 22 21 21 21 21 21 21 21 21 21 21 22 23 24 24 24
21 20 17 14 12 10 8 6 5 5 6 7 9 10 11 11 12 11 13 14 16 18 19 20 19 19 21 22 22 22 21 21 21 20 21 21 21 21 22 22 23 23 23 23
17 16 15 13 10 7 5 6 6 7 8 10 11 11 11 10 12 14 14 16 18 20 21 20 19 19 20 22 22 22 21 21 20 21 21 21 21 22 23 23 23 22 22 22
Wind_Direction
222 180 188 213 239 178 184 211 163 243 203 257 251 253 255 260 243 229 220 217 216 213 211 210 209 213 212 210 204 213 212 222 233 249 237 224 231 244 260 279 287 291 296 298
140 106 62 243 244 252 239 210 254 250 255 228 295 275 311 281 234 220 224 222 221 219 217 215 216 216 212 207 206 208 216 226 233 212 211 211 227 263 288 285 286 295 299 302
226 87 64 330 217 219 235 220 190 218 230 276 51 65 36 16 230 240 230 220 220 218 216 216 214 212 208 203 203 212 216 202 199 196 206 232 286 304 281 285 300 304 304 305
181 48 334 242 206 205 204 265 256 188 113 119 132 97 69 62 93 150 191 203 208 207 205 205 203 194 194 202 205 194 192 190 190 206 295 312 306 279 294 306 307 306 306 306
142 193 292 287 210 152 171 237 213 157 128 131 130 88 44 51 96 121 152 175 189 193 192 185 187 195 196 183 184 184 181 182 200 297 316 300 282 296 303 303 304 304 306 306
134 148 212 237 233 171 109 249 192 173 165 169 72 74 270 75 124 150 164 169 174 177 183 188 182 182 179 172 174 175 186 240 287 301 289 286 293 295 299 301 302 305 307 306
122 193 285 247 200 122 126 236 172 180 178 178 157 199 163 162 149 152 158 163 170 171 171 168 165 172 168 167 181 211 284 301 295 286 291 295 297 300 302 301 302 304 306 309
84 73 276 194 111 166 199 143 162 167 175 175 152 151 157 158 154 154 154 152 155 150 144 143 150 164 163 202 283 299 293 289 288 295 299 302 302 303 303 303 303 307 310 307
179 208 233 188 223 186 161 158 160 157 156 155 153 158 163 161 158 152 147 143 143 143 143 149 162 180 284 304 307 292 295 301 306 310 312 313 309 308 307 307 305 304 308 306
112 217 229 207 186 168 171 162 160 166 164 168 166 169 166 161 153 148 144 142 143 144 144 142 121 36 273 248 284 299 302 307 309 310 310 309 307 305 302 299 300 300 297 302
69 4 103 182 182 169 164 160 157 163 171 177 175 169 166 155 151 148 145 141 139 134 133 138 162 187 251 290 297 301 303 303 303 301 299 297 295 295 293 291 292 292 294 293
213 186 158 180 173 168 161 158 164 172 173 179 180 167 160 152 150 147 144 141 143 142 154 158 191 269 293 298 302 302 302 302 303 304 303 303 302 301 299 298 297 295 291 287
173 170 176 166 169 168 163 158 159 166 172 167 162 157 154 147 149 150 148 148 160 161 162 225 290 300 302 303 306 309 311 312 312 312 312 313 312 312 312 309 309 307 307 299
164 155 131 159 165 166 165 158 158 152 151 151 151 154 153 151 151 154 155 155 159 183 248 285 299 305 309 312 313 314 316 318 320 321 322 321 321 320 314 309 314 314 318 309
155 178 179 164 157 155 156 151 145 142 145 146 151 151 154 152 154 153 152 163 193 236 274 293 304 312 314 317 321 324 326 328 330 331 332 332 332 329 328 325 320 317 319 320
137 140 151 154 153 155 158 155 151 147 149 148 151 153 154 155 154 155 159 173 223 268 301 312 316 319 321 325 329 331 333 334 334 337 340 343 344 347 347 350 342 330 327 324
132 131 148 151 158 157 160 158 156 153 152 152 152 154 157 158 156 157 169 230 294 309 313 318 321 324 328 332 334 334 334 335 337 336 333 333 328 333 335 338 339 342 348 346
192 172 170 170 164 163 158 156 153 152 152 154 153 152 155 158 167 174 213 283 302 306 311 315 323 331 333 332 332 334 336 337 339 339 336 332 331 331 331 335 337 338 339 336
166 162 162 167 169 163 157 155 155 154 152 151 152 156 163 170 179 222 277 294 298 303 317 326 332 333 330 330 332 332 332 333 333 332 331 330 330 330 330 333 334 335 335 334
152 159 168 166 162 162 156 155 155 153 151 154 161 165 170 179 248 284 294 298 309 319 325 325 325 325 326 325 325 326 327 326 325 325 325 327 326 326 327 327 328 330 330 329
161 166 160 159 156 156 155 154 158 156 153 160 168 177 196 229 272 295 305 309 316 316 316 317 317 318 320 324 325 324 322 320 320 321 324 324 324 323 325 326 327 329 329 329
159 157 150 151 151 149 151 151 155 162 163 166 176 196 230 265 288 300 305 308 309 310 312 315 317 319 323 323 324 323 323 323 321 322 323 323 324 324 326 326 327 328 328 327
150 150 146 148 152 148 149 161 164 164 164 170 187 218 282 297 304 309 310 308 308 313 318 322 325 326 327 327 326 327 326 325 323 324 325 324 324 325 326 327 328 327 327 327
143 142 148 149 150 161 167 163 166 167 179 191 243 302 309 309 305 306 306 313 322 324 326 326 325 325 328 328 325 325 324 323 323 324 324 323 321 323 324 325 326 327 326 326
143 145 151 157 163 164 165 165 174 193 221 268 289 299 302 300 300 304 307 314 319 320 321 322 319 318 321 324 322 321 321 321 323 323 321 320 321 322 324 325 325 326 326 326
154 158 158 159 168 168 177 191 216 243 263 277 288 295 299 299 299 300 304 307 312 316 318 320 315 312 315 318 319 319 319 319 320 320 319 319 320 321 323 325 326 326 326 327
157 162 167 172 177 183 183 214 242 261 275 281 285 295 301 299 290 292 297 303 310 315 319 320 312 307 310 315 319 319 319 317 317 318 318 317 318 320 322 324 326 326 327 328
Height
1472 1470 1471 1471 1472 1476 1482 1483 1490 1482 1484 1470 1464 1463 1458 1456 1458 1461 1464 1467 1470 1473 1477 1482 1487 1490 1494 1498 1501 1504 1507 1511 1513 1515 1516 1517 1518 1518 1519 1518 1517 1515 1513 1511
1474 1473 1473 1474 1472 1473 1475 1472 1477 1475 1475 1461 1459 1458 1457 1456 1454 1455 1458 1461 1465 1470 1474 1478 1482 1487 1492 1496 1499 1503 1506 1508 1510 1511 1513 1515 1516 1517 1516 1513 1511 1510 1508 1505
1482 1480 1478 1492 1478 1471 1468 1466 1467 1474 1465 1459 1459 1459 1458 1456 1456 1457 1459 1461 1463 1467 1471 1475 1481 1485 1490 1494 1498 1501 1504 1507 1509 1512 1513 1514 1513 1511 1510 1508 1506 1505 1503 1501
1494 1490 1504 1465 1457 1459 1464 1463 1462 1460 1459 1458 1461 1461 1460 1458 1458 1459 1460 1462 1464 1467 1472 1477 1482 1487 1491 1494 1497 1501 1504 1506 1509 1512 1512 1511 1509 1507 1505 1503 1501 1500 1498 1497
1493 1494 1479 1460 1455 1460 1461 1463 1459 1460 1460 1460 1461 1460 1461 1460 1460 1460 1461 1463 1466 1470 1473 1478 1483 1486 1490 1494 1497 1501 1504 1507 1508 1509 1508 1507 1505 1503 1501 1499 1497 1495 1493 1490
1499 1495 1493 1460 1448 1447 1451 1469 1455 1457 1459 1460 1460 1471 1467 1464 1464 1464 1465 1467 1469 1472 1476 1480 1483 1487 1491 1495 1499 1502 1504 1506 1507 1505 1504 1503 1501 1498 1496 1494 1492 1490 1487 1485
1497 1494 1473 1450 1445 1447 1467 1467 1449 1454 1458 1460 1463 1464 1464 1466 1467 1468 1468 1470 1472 1475 1478 1483 1487 1491 1494 1498 1501 1503 1504 1504 1503 1502 1500 1498 1496 1494 1492 1490 1487 1485 1481 1478
1493 1497 1473 1441 1445 1452 1447 1444 1448 1452 1456 1459 1461 1463 1465 1468 1469 1471 1472 1474 1477 1478 1483 1488 1492 1495 1498 1500 1501 1501 1501 1501 1500 1498 1496 1494 1492 1490 1487 1485 1481 1478 1474 1470
1457 1455 1439 1438 1438 1437 1438 1441 1448 1452 1455 1457 1461 1464 1467 1469 1471 1474 1477 1479 1482 1485 1488 1492 1495 1497 1497 1498 1498 1499 1499 1498 1496 1494 1492 1490 1488 1485 1482 1479 1475 1471 1467 1463
1442 1438 1437 1437 1437 1437 1438 1440 1445 1450 1453 1457 1458 1463 1467 1471 1474 1477 1481 1484 1486 1489 1491 1494 1495 1496 1497 1497 1496 1496 1495 1493 1492 1490 1487 1485 1482 1479 1475 1471 1467 1463 1459 1455
1440 1438 1437 1437 1437 1437 1439 1442 1445 1449 1452 1455 1458 1463 1468 1473 1477 1480 1483 1486 1489 1491 1492 1493 1495 1495 1495 1494 1494 1493 1491 1489 1487 1484 1481 1477 1474 1471 1467 1462 1459 1454 1449 1446
1428 1420 1422 1429 1435 1438 1439 1441 1445 1447 1452 1455 1458 1462 1469 1474 1479 1482 1485 1487 1489 1491 1493 1493 1494 1494 1493 1492 1490 1488 1487 1484 1481 1477 1474 1470 1464 1458 1457 1452 1448 1444 1439 1436
1408 1415 1419 1424 1432 1437 1439 1442 1445 1447 1451 1454 1461 1464 1470 1474 1479 1482 1485 1487 1489 1490 1491 1492 1491 1490 1489 1488 1486 1484 1481 1478 1475 1471 1466 1461 1456 1451 1443 1437 1436 1432 1428 1424
1407 1412 1425 1427 1430 1436 1439 1442 1446 1448 1452 1457 1460 1465 1470 1474 1479 1482 1484 1486 1488 1489 1489 1489 1488 1487 1485 1484 1482 1480 1477 1473 1468 1464 1459 1455 1450 1445 1441 1435 1426 1419 1416 1413
1410 1410 1414 1421 1429 1435 1440 1443 1446 1450 1454 1459 1464 1467 1472 1476 1479 1481 1484 1485 1487 1487 1487 1486 1485 1483 1482 1480 1477 1474 1470 1466 1462 1458 1454 1449 1445 1440 1434 1429 1423 1417 1411 1407
1412 1417 1420 1423 1430 1436 1441 1445 1446 1452 1456 1461 1464 1469 1473 1476 1479 1481 1483 1484 1485 1484 1483 1482 1481 1479 1477 1475 1472 1469 1465 1462 1458 1454 1450 1445 1441 1437 1431 1426 1419 1414 1409 1405
1410 1423 1421 1428 1433 1438 1443 1446 1449 1453 1457 1462 1465 1469 1473 1476 1478 1480 1481 1481 1481 1481 1480 1479 1477 1476 1473 1470 1467 1464 1461 1458 1454 1451 1447 1443 1439 1435 1430 1425 1419 1415 1410 1405
1415 1418 1420 1423 1430 1436 1444 1449 1452 1456 1459 1463 1467 1471 1474 1476 1478 1478 1479 1479 1479 1478 1477 1476 1474 1472 1469 1466 1464 1461 1458 1454 1451 1447 1443 1440 1436 1432 1427 1422 1417 1412 1407 1403
1417 1420 1424 1429 1433 1439 1444 1449 1453 1457 1461 1465 1468 1471 1474 1475 1476 1476 1477 1477 1476 1475 1474 1472 1470 1468 1466 1463 1461 1458 1454 1451 1447 1444 1441 1437 1433 1428 1424 1419 1415 1410 1406 1401
1419 1423 1425 1432 1438 1441 1445 1450 1454 1459 1463 1466 1469 1471 1473 1473 1474 1474 1474 1474 1473 1472 1470 1468 1467 1465 1463 1460 1457 1454 1450 1447 1444 1440 1437 1433 1429 1425 1421 1416 1412 1407 1403 1398
1420 1425 1430 1434 1438 1444 1449 1454 1457 1460 1463 1467 1469 1470 1471 1472 1472 1472 1472 1471 1470 1468 1467 1465 1463 1461 1459 1456 1452 1449 1446 1443 1440 1436 1432 1428 1424 1421 1417 1413 1408 1404 1399 1395
1425 1429 1433 1437 1442 1447 1452 1456 1460 1462 1464 1466 1468 1469 1470 1470 1470 1470 1469 1468 1466 1465 1463 1461 1459 1456 1454 1451 1448 1445 1442 1438 1435 1432 1428 1424 1420 1416 1413 1409 1404 1400 1396 1392
1429 1432 1437 1442 1446 1450 1455 1459 1461 1464 1465 1466 1467 1468 1468 1468 1468 1467 1466 1465 1463 1461 1459 1458 1455 1452 1450 1447 1444 1441 1437 1434 1431 1428 1424 1420 1416 1412 1409 1405 1401 1397 1393 1389
1434 1438 1443 1447 1451 1454 1457 1460 1462 1464 1465 1466 1466 1466 1466 1466 1466 1465 1463 1461 1460 1458 1456 1454 1451 1448 1446 1443 1440 1437 1434 1430 1427 1424 1420 1416 1413 1409 1406 1401 1397 1393 1389 1385
1440 1444 1447 1451 1454 1457 1459 1461 1463 1464 1464 1465 1465 1465 1464 1464 1463 1462 1460 1459 1457 1455 1453 1450 1447 1444 1442 1439 1436 1433 1430 1426 1423 1419 1416 1412 1409 1405 1402 1398 1393 1389 1385 1382
1444 1447 1450 1454 1457 1459 1461 1462 1463 1464 1464 1464 1463 1463 1462 1461 1460 1459 1458 1456 1454 1451 1449 1446 1443 1440 1437 1434 1431 1428 1425 1422 1419 1416 1412 1408 1405 1401 1398 1394 1390 1386 1382 1377
1448 1451 1453 1456 1458 1459 1461 1462 1463 1463 1462 1462 1461 1460 1459 1458 1457 1456 1454 1452 1450 1447 1444 1441 1438 1436 1433 1430 1426 1423 1420 1417 1414 1411 1408 1404 1401 1397 1394 1390 1386 1382 1378 1374